Retour au catalogue

BLACK KITE-2

ActifScienceSSO
NORAD 68474·PAYLOAD·🇹🇼 Taiwan

Lancé Mar 30, 2026 depuis Vandenberg Space Force Base

Loading…

Prochains Passages (prochaines 24 heures)

TLE

FraisSource: Space-Track

Époque: Sep 13, 2026, 19:55 UTC

1 68474U 26067BL  26256.83024047  .00002007  00000-0  19891-3 0  9999
2 68474  97.7640 213.8646 0001657   1.0322 359.0901 14.92915687 24950

Suivez BLACK KITE-2 en temps réel avec AllMySat

Download on the App Store